This is the latest recevied weather packets stored in our database for station/object K2ATL. If no packets are shown the sender has not sent any weather packets the latest 10 day(s).
| Time | Temp. | Humidity | Pressure | Rain* | Wind** | Luminosity | Snow |
|---|---|---|---|---|---|---|---|
| 1787503851 | 24.44° C | 67% | 1103.4 hPa | 0 mm | - | 859 W/m² | - |
| 1787503546 | 25° C | 59% | 1103.1 hPa | 0 mm | - | 849 W/m² | - |
| 1787503244 | 25.56° C | 61% | 1103.1 hPa | 0 mm | - | 844 W/m² | - |
| 1787502944 | 23.89° C | 63% | 1103.2 hPa | 0 mm | - | 837 W/m² | - |
| 1787502640 | 25° C | 68% | 1103.2 hPa | 0 mm | - | 831 W/m² | - |
| 1787502339 | 23.89° C | 64% | 1103.4 hPa | 0 mm | - | 820 W/m² | - |
| 1787502034 | 23.89° C | 62% | 1103.4 hPa | 0 mm | - | 814 W/m² | - |
| 1787501731 | 24.44° C | 63% | 1103.3 hPa | 0 mm | - | 801 W/m² | - |
| 1787501427 | 22.78° C | 72% | 1103.5 hPa | 0 mm | - | 793 W/m² | - |
| 1787501122 | 24.44° C | 70% | 1103.5 hPa | 0 mm | - | 780 W/m² | - |
| 1787500819 | 23.89° C | 67% | 1103.5 hPa | 0 mm | - | 765 W/m² | - |
| 1787500514 | 23.33° C | 69% | 1103.3 hPa | 0 mm | - | 745 W/m² | - |
| 1787500209 | 23.89° C | 66% | 1103.5 hPa | 0 mm | - | 739 W/m² | - |
| 1787499909 | 23.33° C | 72% | 1103.6 hPa | 0 mm | - | 726 W/m² | - |
| 1787499609 | 22.78° C | 72% | 1103.6 hPa | 0 mm | - | 712 W/m² | - |
| 1787499304 | 23.33° C | 71% | 1103.9 hPa | 0 mm | - | 694 W/m² | - |
| 1787499000 | 22.78° C | 73% | 1103.8 hPa | 0 mm | - | 681 W/m² | - |
| 1787498697 | 22.22° C | 74% | 1103.5 hPa | 0 mm | - | 665 W/m² | - |
| 1787498394 | 22.22° C | 74% | 1103.7 hPa | 0 mm | - | 657 W/m² | - |
| 1787498089 | 22.22° C | 74% | 1103.5 hPa | 0 mm | - | 638 W/m² | - |
| 1787497784 | 22.78° C | 74% | 1103.3 hPa | 0 mm | - | 615 W/m² | - |
| 1787497480 | 21.67° C | 76% | 1103.6 hPa | 0 mm | - | 604 W/m² | - |
| 1787497178 | 21.67° C | 75% | 1103.6 hPa | 0 mm | - | 586 W/m² | - |
| 1787496873 | 21.11° C | 78% | 1103.4 hPa | 0 mm | - | 567 W/m² | - |
| 1787496569 | 21.11° C | 79% | 1103.4 hPa | 0 mm | - | 555 W/m² | - |
* Rain latest hour (hover to see other rain measurements)
** Current wind speed in m/s (hover to see current wind gust speed)